User: anonymous   Login
Location: Unspecified
(0.0000°N, 0.0000°E)
Time: 23:53:31
(UTC+02:00)
Language:

Hamsat - Orbit

View from above orbital plane
View from above orbital plane
View from above satellite
View from above satellite

Ground track
Ground track

The orbit data is extracted from the following two-line orbital elements,

1 28650U 05017B   16152.18960016  .00000565  00000-0  66608-4 0  9996
2 28650  97.6066 134.7057 0022643 318.7598  41.1908 14.88279194599348
Epoch (UTC): 31 May 2016 04:33:01
Eccentricity: 0.0022643
inclination: 97.6066°
perigee height: 587 km
apogee height: 619 km
right ascension of ascending node: 134.7057°
argument of perigee: 318.7598°
revolutions per day: 14.88279194
mean anomaly at epoch: 41.1908°
orbit number at epoch: 59934

The dashed part of the orbit path shows where the satellite is in the earth's shadow,  

DLR